Location: Monrovia
(34.7865°N, 86.7139°W)
Time: 20:19:30
(UTC+00:00)

SL-19 R/B - Pass Details

Date: 14 July 2020
Orbit: 358 x 810 km, 99.4° (Epoch: 08 August)

Event Time Altitude Azimuth Distance (km) Brightness Sun altitude
Rises 09:01:51 0° 16° (NNE) 2,259 8.5 -18.0°
Reaches altitude 10° 09:03:43 10° 18° (NNE) 1,439 7.4 -17.7°
Maximum altitude 09:06:45 74° 104° (ESE) 444 3.8 -17.2°
Enters shadow 09:07:58 35° 182° (S) 715 4.5 -17.1°
